When you browse on this site, cookies collect data to enhance your experience and personalize the content and advertising you see.
Visit our Privacy Policy to learn more. By continuing to use the site, you agree to this use of cookies and data.
  • In Portugal
  • List of Countries
  • For 7 days
  • Water Temperature
  • Weather Map
  • Weather Widgets
  • user-avatar
    Login

    Hourly Weather Balchik

    Today, 30 March, Monday

    Time Temperature Precipitation Wind Pressure Humidity
    00:00 +9°C° 0 mm 3 mps 732 mmHg 65%
    01:00 +9°C° 0 mm 3 mps 733 mmHg 68%
    02:00 +8°C° 0 mm 3 mps 733 mmHg 70%
    03:00 +8°C° 0 mm 3 mps 733 mmHg 72%
    04:00 +6°C° 0 mm 4 mps 733 mmHg 74%
    05:00 +6°C° 0 mm 4 mps 733 mmHg 76%
    06:00 +7°C° 0 mm 4 mps 733 mmHg 73%
    07:00 +8°C° 0 mm 4 mps 734 mmHg 71%
    08:00 +10°C° 0 mm 4 mps 734 mmHg 69%
    09:00 +11°C° 0 mm 3 mps 734 mmHg 61%
    10:00 +13°C° 0 mm 3 mps 735 mmHg 53%
    11:00 +16°C° 0 mm 2 mps 735 mmHg 45%
    12:00 +16°C° 0 mm 2 mps 735 mmHg 43%
    13:00 +18°C° 0 mm 1 mps 735 mmHg 41%
    14:00 +19°C° 0 mm 1 mps 735 mmHg 40%
    15:00 +17°C° 0 mm 2 mps 735 mmHg 44%
    16:00 +16°C° 0 mm 2 mps 735 mmHg 47%
    17:00 +14°C° 0 mm 3 mps 735 mmHg 51%
    18:00 +13°C° 0 mm 2 mps 735 mmHg 54%
    19:00 +12°C° 0 mm 2 mps 735 mmHg 58%
    20:00 +9°C° 0 mm 2 mps 735 mmHg 61%
    21:00 +9°C° 0.1 mm 2 mps 736 mmHg 64%
    22:00 +9°C° 0.1 mm 2 mps 736 mmHg 67%
    23:00 +8°C° 0.1 mm 2 mps 736 mmHg 70%

    Tomorrow, 31 March, Tuesday

    Time Temperature Precipitation Wind Pressure Humidity
    00:00 +8°C° 0.1 mm 3 mps 736 mmHg 73%
    01:00 +7°C° 0.1 mm 3 mps 737 mmHg 77%
    02:00 +6°C° 0.1 mm 4 mps 737 mmHg 80%
    03:00 +5°C° 0 mm 4 mps 737 mmHg 82%
    04:00 +5°C° 0 mm 4 mps 737 mmHg 84%
    05:00 +3°C° 0 mm 5 mps 737 mmHg 85%
    06:00 +3°C° 0 mm 5 mps 738 mmHg 86%
    07:00 +3°C° 0 mm 5 mps 738 mmHg 87%
    08:00 +2°C° 0 mm 5 mps 738 mmHg 88%
    09:00 +2°C° 0 mm 5 mps 739 mmHg 87%
    10:00 +2°C° 0 mm 5 mps 739 mmHg 87%
    11:00 +2°C° 0 mm 5 mps 740 mmHg 87%
    12:00 +2°C° 0 mm 5 mps 740 mmHg 87%
    13:00 +2°C° 0 mm 5 mps 739 mmHg 87%
    14:00 +2°C° 0 mm 5 mps 739 mmHg 87%
    15:00 +2°C° 0 mm 5 mps 739 mmHg 87%
    16:00 +1°C° 0 mm 5 mps 739 mmHg 87%
    17:00 +1°C° 0 mm 5 mps 739 mmHg 88%
    18:00 +1°C° 0 mm 5 mps 740 mmHg 87%
    19:00 +1°C° 0 mm 5 mps 740 mmHg 87%
    20:00 +1°C° 0 mm 5 mps 740 mmHg 87%
    21:00 0°C° 0 mm 4 mps 740 mmHg 85%
    22:00 0°C° 0 mm 4 mps 740 mmHg 82%
    23:00 +1°C° 0 mm 3 mps 741 mmHg 80%

    Day after tomorrow, 1 April, Wednesday

    Time Temperature Precipitation Wind Pressure Humidity
    00:00 +1°C° 0 mm 3 mps 740 mmHg 77%
    01:00 -1°C° 0 mm 4 mps 740 mmHg 74%
    02:00 -1°C° 0 mm 4 mps 740 mmHg 71%
    03:00 -1°C° 0 mm 4 mps 740 mmHg 67%
    04:00 -1°C° 0 mm 4 mps 740 mmHg 63%
    05:00 -1°C° 0 mm 5 mps 740 mmHg 59%
    06:00 -1°C° 0.1 mm 5 mps 741 mmHg 65%
    07:00 0°C° 0.1 mm 5 mps 741 mmHg 72%
    08:00 -1°C° 0.1 mm 6 mps 741 mmHg 78%
    09:00 +1°C° 0.2 mm 6 mps 741 mmHg 78%
    10:00 0°C° 0.2 mm 7 mps 741 mmHg 78%
    11:00 +2°C° 0.2 mm 7 mps 741 mmHg 77%
    12:00 +2°C° 0.1 mm 7 mps 741 mmHg 73%
    13:00 +3°C° 0.1 mm 7 mps 741 mmHg 70%
    14:00 +3°C° 0.1 mm 7 mps 741 mmHg 66%
    15:00 +3°C° 0 mm 7 mps 741 mmHg 65%
    16:00 +2°C° 0 mm 7 mps 740 mmHg 64%
    17:00 +2°C° 0 mm 7 mps 740 mmHg 62%
    18:00 +1°C° 0 mm 6 mps 740 mmHg 64%
    19:00 0°C° 0 mm 5 mps 740 mmHg 65%
    20:00 +1°C° 0 mm 3 mps 740 mmHg 67%
    21:00 0°C° 0 mm 3 mps 740 mmHg 67%
    22:00 0°C° 0 mm 3 mps 740 mmHg 67%
    23:00 0°C° 0 mm 3 mps 740 mmHg 67%

    2 April, Thursday

    Time Temperature Precipitation Wind Pressure Humidity
    00:00 0°C° 0 mm 3 mps 740 mmHg 67%
    01:00 -1°C° 0 mm 3 mps 740 mmHg 67%
    02:00 -1°C° 0 mm 3 mps 740 mmHg 67%
    03:00 -1°C° 0 mm 3 mps 740 mmHg 67%
    04:00 -1°C° 0 mm 3 mps 739 mmHg 66%
    05:00 -3°C° 0 mm 4 mps 739 mmHg 66%
    06:00 -1°C° 0 mm 4 mps 739 mmHg 63%
    07:00 0°C° 0 mm 4 mps 739 mmHg 60%
    08:00 +1°C° 0 mm 5 mps 740 mmHg 58%
    09:00 +3°C° 0 mm 5 mps 740 mmHg 54%
    10:00 +5°C° 0 mm 5 mps 740 mmHg 50%
    11:00 +7°C° 0 mm 5 mps 740 mmHg 46%
    12:00 +7°C° 0 mm 4 mps 739 mmHg 45%
    13:00 +8°C° 0 mm 4 mps 739 mmHg 43%
    14:00 +8°C° 0 mm 4 mps 739 mmHg 41%
    15:00 +8°C° 0 mm 4 mps 739 mmHg 43%
    16:00 +7°C° 0 mm 4 mps 738 mmHg 44%
    17:00 +8°C° 0 mm 3 mps 738 mmHg 45%
    18:00 +5°C° 0 mm 3 mps 738 mmHg 51%
    19:00 +4°C° 0 mm 2 mps 738 mmHg 56%
    20:00 +2°C° 0 mm 2 mps 738 mmHg 62%
    21:00 +2°C° 0 mm 2 mps 738 mmHg 64%
    22:00 +1°C° 0 mm 2 mps 739 mmHg 65%
    23:00 +2°C° 0 mm 1 mps 739 mmHg 67%

    3 April, Friday

    Time Temperature Precipitation Wind Pressure Humidity
    00:00 +1°C° 0 mm 2 mps 739 mmHg 67%
    01:00 +1°C° 0 mm 2 mps 739 mmHg 68%
    02:00 +1°C° 0 mm 2 mps 738 mmHg 68%
    03:00 +1°C° 0 mm 2 mps 738 mmHg 68%
    04:00 +1°C° 0 mm 2 mps 738 mmHg 69%
    05:00 +1°C° 0 mm 2 mps 738 mmHg 69%
    06:00 +2°C° 0 mm 2 mps 738 mmHg 64%
    07:00 +4°C° 0 mm 2 mps 739 mmHg 60%
    08:00 +6°C° 0 mm 2 mps 739 mmHg 55%
    09:00 +7°C° 0 mm 2 mps 739 mmHg 51%
    10:00 +9°C° 0 mm 3 mps 739 mmHg 47%
    11:00 +10°C° 0 mm 4 mps 739 mmHg 44%
    12:00 +11°C° 0 mm 4 mps 738 mmHg 45%
    13:00 +10°C° 0 mm 5 mps 738 mmHg 46%
    14:00 +10°C° 0 mm 5 mps 738 mmHg 46%
    15:00 +10°C° 0 mm 5 mps 738 mmHg 50%
    16:00 +9°C° 0 mm 5 mps 738 mmHg 53%
    17:00 +8°C° 0 mm 5 mps 737 mmHg 57%
    18:00 +7°C° 0 mm 4 mps 737 mmHg 62%
    19:00 +5°C° 0 mm 4 mps 737 mmHg 67%
    20:00 +4°C° 0 mm 4 mps 738 mmHg 72%
    21:00 +4°C° 0 mm 3 mps 738 mmHg 73%
    22:00 +3°C° 0 mm 3 mps 738 mmHg 74%
    23:00 +4°C° 0 mm 2 mps 739 mmHg 75%

    4 April, Saturday

    Time Temperature Precipitation Wind Pressure Humidity
    00:00 +4°C° 0 mm 2 mps 739 mmHg 75%
    01:00 +5°C° 0 mm 2 mps 739 mmHg 75%
    02:00 +5°C° 0 mm 2 mps 739 mmHg 75%
    03:00 +5°C° 0 mm 2 mps 739 mmHg 77%
    04:00 +3°C° 0 mm 3 mps 739 mmHg 78%
    05:00 +3°C° 0 mm 3 mps 739 mmHg 80%
    06:00 +4°C° 0 mm 3 mps 740 mmHg 76%
    07:00 +7°C° 0 mm 3 mps 741 mmHg 71%
    08:00 +7°C° 0 mm 4 mps 741 mmHg 66%
    09:00 +10°C° 0 mm 4 mps 742 mmHg 59%
    10:00 +12°C° 0 mm 4 mps 742 mmHg 52%
    11:00 +13°C° 0 mm 4 mps 742 mmHg 45%
    12:00 +13°C° 0 mm 4 mps 743 mmHg 45%
    13:00 +14°C° 0 mm 3 mps 743 mmHg 45%
    14:00 +14°C° 0 mm 3 mps 743 mmHg 44%
    15:00 +13°C° 0 mm 3 mps 743 mmHg 47%
    16:00 +14°C° 0 mm 2 mps 743 mmHg 51%
    17:00 +13°C° 0 mm 2 mps 743 mmHg 54%
    18:00 +12°C° 0 mm 2 mps 744 mmHg 58%
    19:00 +9°C° 0 mm 2 mps 744 mmHg 62%
    20:00 +8°C° 0 mm 2 mps 745 mmHg 66%
    21:00 +8°C° 0 mm 2 mps 746 mmHg 67%
    22:00 +7°C° 0 mm 2 mps 746 mmHg 68%
    23:00 +7°C° 0 mm 2 mps 747 mmHg 69%
    Show more